[[{"header":{"parameterUnit":"m.s-1","parameterCategory":1,"la1":30.2991,"la2":30.254,"lo1":-89.0895,"lo2":-89.0444,"dy":0.0017,"dx":0.0017,"nx":28,"ny":28,"refTime":"2025-03-10T21:00:00:Z","depth":0,"parameterNumber":2,"parameterNumberName":"U-component_of_WINDS"},"data":[0,0,0,0,0,0,0,0,0,0,0,0,0,0,0,0,0,0,0,0,0,0,0,0,0,0,0,0,0,0,0,0,0,0,0,0,0,0,0,0,0,0,0,0,0,0,0,0,0,0,0,0,0,0,0,0,0,0,1.5056,1.5056,0,1.5075,1.5075,1.5076,1.5052,1.5051,1.505,1.5049,1.5068,1.5069,1.507,0,0,0,0,0,0,0,0,0,0,0,0,0,1.5,1.5001,1.5056,1.5057,1.5057,1.5075,1.5075,1.5076,1.5052,1.5051,1.505,1.5049,1.5067,1.5069,1.5071,0,0,0,0,0,0,0,0,0,0,0,0,0,1.5022,1.5001,1.5056,1.5047,1.5046,1.5075,1.5075,1.5076,1.5052,1.5051,1.5049,1.5048,1.5067,1.5069,1.5071,1.5109,0,0,1.5077,1.5078,0,0,0,0,0,0,0,0,1.5021,1.5024,1.5048,1.5048,1.5047,1.506,1.5062,1.5087,1.5052,1.505,1.5049,1.5048,1.5066,1.5068,1.5075,1.511,1.5111,1.5077,1.5078,1.5079,1.508,0,0,0,0,0,0,0,1.5019,1.5023,1.5064,1.5049,1.5048,1.5042,1.5044,1.5067,1.5065,1.505,1.5048,1.5051,1.5066,1.5073,1.5075,1.5111,1.5077,1.5079,1.508,1.5081,1.518,1.5182,0,0,0,0,0,0,1.5019,1.5022,1.5063,1.5064,1.5031,1.5044,1.5046,1.5057,1.5065,1.5065,1.5052,1.505,1.507,1.5073,1.5075,1.5122,1.5079,1.5081,1.5082,1.5179,1.5181,1.5182,0,0,0,0,0,0,1.5018,1.5023,1.5062,1.5043,1.5047,1.5047,1.5059,1.5058,1.5065,1.5066,1.5066,1.506,1.5069,1.5073,1.5101,1.5122,1.5082,1.5084,1.5177,1.5179,1.5181,1.5214,0,0,0,0,0,0,1.5016,1.5022,1.5037,1.5043,1.5048,1.5088,1.506,1.5059,1.5069,1.5066,1.5073,1.5073,1.5068,1.5098,1.5103,1.5124,1.5085,1.5175,1.5178,1.5181,1.5211,1.5217,1.5222,0,0,0,0,0,1.5014,1.5045,1.5038,1.5043,1.5067,1.5089,1.5092,1.5086,1.507,1.5085,1.5086,1.5073,1.5119,1.5102,1.5107,1.5128,1.5174,1.5177,1.5181,1.5209,1.5216,1.5222,0,0,0,0,0,0,1.5041,1.5046,1.5038,1.5071,1.508,1.5085,1.5103,1.5094,1.5107,1.5104,1.5095,1.5097,1.5128,1.5131,1.5112,1.5167,1.5144,1.5148,1.5163,1.517,1.5176,1.5175,1.5087,0,0,0,0,0,1.505,1.5068,1.5072,1.5101,1.5106,1.5104,1.5114,1.5108,1.5117,1.512,1.5123,1.5132,1.5149,1.516,1.5175,1.5211,1.5213,1.5229,1.5234,1.5239,1.5243,1.5264,1.5271,1.5193,1.5193,1.5193,0,0,1.5071,1.5076,1.5087,1.5107,1.5113,1.5132,1.5107,1.5128,1.5142,1.5123,1.5151,1.5154,1.5163,1.5196,1.5211,1.5199,1.5265,1.5243,1.5247,1.5248,1.5268,1.5275,1.5282,1.5195,1.5195,1.5194,0,0,1.5118,1.5123,1.5148,1.5155,1.5165,1.5164,1.517,1.5177,1.5178,1.5206,1.5192,1.5209,1.5237,1.5245,1.5252,1.5303,1.5292,1.5308,1.5337,1.5358,1.5364,1.5369,1.5388,1.5395,1.5312,1.5312,1.5312,0,1.5141,1.517,1.5163,1.5185,1.5194,1.5178,1.5205,1.5212,1.5226,1.5233,1.522,1.5256,1.5261,1.5296,1.5309,1.5315,1.5322,1.5307,1.5363,1.5369,1.5374,1.5392,1.5399,1.5314,1.5314,1.5314,1.5314,0,1.5199,1.5219,1.5238,1.5253,1.5264,1.5289,1.5286,1.5298,1.5292,1.5292,1.5321,1.5326,1.5343,1.5351,1.5345,1.5386,1.5378,1.5365,1.5342,1.5383,1.54,1.5407,1.5317,1.5316,1.5316,1.5315,0,0,1.5263,1.5274,1.5281,1.5288,1.5298,1.5314,1.5337,1.5354,1.5365,1.5376,1.5396,1.5421,1.5408,1.5417,1.5412,1.5429,1.5471,1.5413,1.5414,1.5424,1.5517,1.5528,1.5536,1.5463,1.5464,1.5465,1.5516,0,1.531,1.5351,1.5346,1.5386,1.5405,1.539,1.5411,1.542,1.5421,1.5437,1.5438,1.5456,1.5438,1.5443,1.546,1.5462,1.5489,1.5458,1.5482,1.5483,1.5481,1.5544,1.5555,1.5603,1.5523,1.5524,1.5525,0,1.5371,1.5384,1.5426,1.5434,1.5442,1.5461,1.5476,1.5492,1.5501,1.5501,1.5511,1.5503,1.5527,1.5504,1.5538,1.5517,1.5526,1.5529,1.553,1.5533,1.5507,1.5549,1.5618,1.5625,1.5535,1.5534,1.5533,0,1.5414,1.5443,1.5472,1.5478,1.5488,1.5502,1.5507,1.5515,1.5526,1.5539,1.5546,1.5562,1.5571,1.5583,1.558,1.5563,1.5615,1.5591,1.5615,1.5616,1.5627,1.5626,1.5699,1.5633,1.5632,1.5632,1.5632,0,1.5468,1.5494,1.5491,1.5509,1.5538,1.5532,1.5561,1.5564,1.5572,1.5591,1.5579,1.5597,1.5591,1.5608,1.5606,1.5635,1.5638,1.5639,1.5638,1.564,1.564,1.5647,1.5643,1.5634,1.5634,1.5633,1.5633,0,1.5521,1.552,1.5551,1.5558,1.5561,1.5582,1.5589,1.5606,1.5606,1.5629,1.5635,1.5635,1.5655,1.5653,1.5675,1.5673,1.5709,1.5704,1.5706,1.5705,1.573,1.5728,1.581,1.5821,1.5747,1.5747,1.5748,0,1.5556,1.5576,1.5586,1.5598,1.5604,1.5622,1.5633,1.5629,1.5641,1.5654,1.5669,1.5688,1.5703,1.5736,1.5738,1.5756,1.5751,1.5779,1.5753,1.5755,1.5752,1.5751,1.5754,1.5784,1.5784,1.5785,1.5786,0,1.5618,1.5617,1.5633,1.565,1.5664,1.5676,1.5688,1.5698,1.5694,1.5709,1.5729,1.5741,1.5764,1.5783,1.58,1.5805,1.5795,1.5794,1.58,1.5803,1.5804,1.5804,1.572,1.5792,1.5791,1.5791,1.579,1.579,1.5663,1.5681,1.5691,1.571,1.5718,1.573,1.5746,1.5749,1.5766,1.5785,1.5781,1.5804,1.5814,1.5835,1.5842,1.5861,1.5851,1.586,1.5863,1.5865,1.5868,1.5801,1.5863,1.5863,1.5863,1.5863,1.5863,0,1.5725,1.5731,1.5749,1.5766,1.5781,1.5771,1.5783,1.5797,1.5817,1.5828,1.5843,1.5867,1.5886,1.589,1.5908,1.5922,1.5918,1.5927,1.5926,1.5928,1.5876,1.5869,1.593,1.593,1.593,1.593,1.593,1.593,1.5759,1.5789,1.5789,1.5823,1.5828,1.5851,1.5859,1.587,1.5878,1.5906,1.5922,1.5924,1.5933,1.5951,1.5968,1.5969,1.5977,1.5988,1.5987,1.5938,1.5931,1.5925,1.5918,1.5989,1.5989,1.6037,1.6038,1.6038]},{"header":{"parameterUnit":"m.s-1","parameterCategory":1,"la1":30.2991,"la2":30.254,"lo1":-89.0895,"lo2":-89.0444,"dy":0.0017,"dx":0.0017,"nx":28,"ny":28,"refTime":"2025-03-10T21:00:00:Z","depth":0,"parameterNumber":3,"parameterNumberName":"V-component_of_WINDS"},"data":[0,0,0,0,0,0,0,0,0,0,0,0,0,0,0,0,0,0,0,0,0,0,0,0,0,0,0,0,0,0,0,0,0,0,0,0,0,0,0,0,0,0,0,0,0,0,0,0,0,0,0,0,0,0,0,0,0,0,-1.505,-1.5052,0,-1.5174,-1.5175,-1.5177,-1.5197,-1.5196,-1.5194,-1.5193,-1.5321,-1.5326,-1.533,0,0,0,0,0,0,0,0,0,0,0,0,0,-1.4834,-1.4838,-1.505,-1.5052,-1.5053,-1.5174,-1.5175,-1.5177,-1.5197,-1.5195,-1.5194,-1.5193,-1.532,-1.5325,-1.533,0,0,0,0,0,0,0,0,0,0,0,0,0,-1.494,-1.4839,-1.505,-1.5078,-1.5081,-1.5173,-1.5175,-1.5177,-1.5197,-1.5195,-1.5194,-1.5192,-1.5318,-1.5325,-1.5331,-1.5404,0,0,-1.5351,-1.5354,0,0,0,0,0,0,0,0,-1.4934,-1.4948,-1.5072,-1.5076,-1.508,-1.5168,-1.5146,-1.5254,-1.5197,-1.5153,-1.5193,-1.5192,-1.5272,-1.5282,-1.5309,-1.541,-1.5416,-1.5352,-1.5356,-1.5359,-1.5361,0,0,0,0,0,0,0,-1.4927,-1.4943,-1.5099,-1.5074,-1.5079,-1.5085,-1.5098,-1.5166,-1.522,-1.5157,-1.5159,-1.5173,-1.5274,-1.5302,-1.5312,-1.5418,-1.5352,-1.5358,-1.5362,-1.5364,-1.5587,-1.5589,0,0,0,0,0,0,-1.4914,-1.4936,-1.5095,-1.5103,-1.5002,-1.509,-1.5105,-1.5142,-1.5219,-1.523,-1.5174,-1.5173,-1.5292,-1.5304,-1.5317,-1.5408,-1.5359,-1.5365,-1.5369,-1.5585,-1.5588,-1.559,0,0,0,0,0,0,-1.4909,-1.4928,-1.509,-1.502,-1.5041,-1.5095,-1.5137,-1.5145,-1.5174,-1.5232,-1.5242,-1.5194,-1.5291,-1.5307,-1.5383,-1.5413,-1.5368,-1.5374,-1.5583,-1.5586,-1.5589,-1.5592,0,0,0,0,0,0,-1.4903,-1.4926,-1.4954,-1.5021,-1.5045,-1.5153,-1.5138,-1.5148,-1.5185,-1.5185,-1.5253,-1.5263,-1.5291,-1.5373,-1.5389,-1.5421,-1.5379,-1.558,-1.5584,-1.5588,-1.5589,-1.5594,-1.5599,0,0,0,0,0,-1.4895,-1.495,-1.4955,-1.4974,-1.5081,-1.5155,-1.5169,-1.52,-1.5187,-1.5216,-1.5254,-1.5261,-1.5407,-1.538,-1.5399,-1.5434,-1.5579,-1.5583,-1.5587,-1.5587,-1.5593,-1.5599,0,0,0,0,0,0,-1.4885,-1.4959,-1.4966,-1.5043,-1.5093,-1.5158,-1.5195,-1.5206,-1.526,-1.5258,-1.5294,-1.531,-1.5383,-1.5416,-1.5385,-1.5509,-1.5492,-1.55,-1.5485,-1.5492,-1.5497,-1.5487,-1.5385,0,0,0,0,0,-1.4892,-1.4946,-1.5008,-1.507,-1.5095,-1.5141,-1.5174,-1.5194,-1.5247,-1.5268,-1.5312,-1.5363,-1.5421,-1.5458,-1.5514,-1.5594,-1.561,-1.5627,-1.5632,-1.5636,-1.5643,-1.5689,-1.5697,-1.5604,-1.5604,-1.5604,0,0,-1.4907,-1.4954,-1.4986,-1.507,-1.511,-1.5166,-1.5158,-1.5217,-1.5259,-1.5277,-1.5351,-1.5385,-1.5445,-1.5523,-1.556,-1.5553,-1.5672,-1.5641,-1.5644,-1.5649,-1.5694,-1.5703,-1.5711,-1.5607,-1.5607,-1.5606,0,0,-1.4962,-1.5003,-1.506,-1.5101,-1.5162,-1.5193,-1.5207,-1.5271,-1.5294,-1.5369,-1.5384,-1.5435,-1.5533,-1.5576,-1.561,-1.5683,-1.5692,-1.5701,-1.5726,-1.577,-1.5778,-1.5784,-1.5811,-1.582,-1.5707,-1.5707,-1.5707,0,-1.4973,-1.5057,-1.5088,-1.5147,-1.5184,-1.5203,-1.5262,-1.53,-1.5377,-1.5403,-1.5393,-1.5518,-1.556,-1.5649,-1.5667,-1.5694,-1.5711,-1.5693,-1.5774,-1.5781,-1.5788,-1.5814,-1.5824,-1.5708,-1.5708,-1.5708,-1.5708,0,-1.5067,-1.5125,-1.5164,-1.5238,-1.528,-1.5338,-1.5379,-1.5418,-1.5434,-1.5466,-1.5542,-1.5593,-1.5661,-1.5683,-1.57,-1.5775,-1.5769,-1.5766,-1.575,-1.5797,-1.5822,-1.5832,-1.5709,-1.5709,-1.5708,-1.5708,0,0,-1.5119,-1.521,-1.5224,-1.5258,-1.5328,-1.5374,-1.5434,-1.55,-1.5532,-1.5585,-1.5637,-1.572,-1.5719,-1.5758,-1.578,-1.5819,-1.5875,-1.5812,-1.5814,-1.5822,-1.5962,-1.5964,-1.5975,-1.5881,-1.5883,-1.5884,-1.5957,0,-1.5183,-1.529,-1.5321,-1.5411,-1.5466,-1.5485,-1.5537,-1.5586,-1.5618,-1.567,-1.5705,-1.5764,-1.5757,-1.5781,-1.582,-1.5859,-1.5903,-1.5854,-1.593,-1.5933,-1.5915,-1.5988,-1.5989,-1.6056,-1.5967,-1.5969,-1.597,0,-1.5272,-1.5327,-1.5422,-1.5486,-1.551,-1.5557,-1.562,-1.5669,-1.5726,-1.5746,-1.579,-1.5809,-1.5873,-1.5853,-1.5943,-1.5909,-1.5942,-1.5966,-1.597,-1.5978,-1.5954,-1.5999,-1.6077,-1.6088,-1.5986,-1.5985,-1.5983,0,-1.5301,-1.5399,-1.5469,-1.5497,-1.5573,-1.5606,-1.5639,-1.5694,-1.5732,-1.5788,-1.5813,-1.5876,-1.591,-1.5959,-1.5994,-1.5976,-1.6081,-1.6064,-1.6101,-1.61,-1.6122,-1.6121,-1.6208,-1.6143,-1.6143,-1.6142,-1.6142,0,-1.537,-1.5428,-1.5483,-1.5526,-1.5592,-1.5627,-1.5692,-1.5726,-1.5775,-1.5826,-1.5847,-1.5895,-1.5938,-1.5992,-1.602,-1.6091,-1.6106,-1.6125,-1.6132,-1.6124,-1.6122,-1.6146,-1.6143,-1.6145,-1.6145,-1.6144,-1.6144,0,-1.5414,-1.5453,-1.5531,-1.5597,-1.5615,-1.566,-1.5717,-1.5761,-1.5793,-1.5858,-1.5875,-1.5926,-1.5991,-1.6031,-1.6113,-1.6132,-1.621,-1.6215,-1.6191,-1.6194,-1.6229,-1.6226,-1.6336,-1.6353,-1.6276,-1.6276,-1.6277,0,-1.5455,-1.55,-1.5571,-1.5606,-1.564,-1.5697,-1.5736,-1.5773,-1.5812,-1.5881,-1.5916,-1.5982,-1.6037,-1.6139,-1.6184,-1.6248,-1.6255,-1.6289,-1.6264,-1.6255,-1.6256,-1.6253,-1.6259,-1.6293,-1.6294,-1.6294,-1.6295,0,-1.5524,-1.5542,-1.5597,-1.5659,-1.5705,-1.5756,-1.5807,-1.5835,-1.5881,-1.5925,-1.5991,-1.6033,-1.6117,-1.6182,-1.625,-1.6285,-1.6298,-1.6302,-1.6314,-1.6306,-1.6291,-1.6301,-1.6203,-1.63,-1.6299,-1.6299,-1.6298,-1.6298,-1.5569,-1.561,-1.5667,-1.5728,-1.577,-1.5817,-1.5861,-1.59,-1.5955,-1.6026,-1.6045,-1.6114,-1.6171,-1.6263,-1.63,-1.6356,-1.6351,-1.6368,-1.6373,-1.6377,-1.6378,-1.6282,-1.6368,-1.6368,-1.6368,-1.6368,-1.6368,0,-1.564,-1.5678,-1.5733,-1.5804,-1.5852,-1.586,-1.5917,-1.5957,-1.6018,-1.6069,-1.6123,-1.62,-1.6263,-1.6314,-1.638,-1.6415,-1.6423,-1.6431,-1.6429,-1.6438,-1.6378,-1.6361,-1.6424,-1.6424,-1.6424,-1.6424,-1.6424,-1.6424,-1.5683,-1.5753,-1.5778,-1.587,-1.5908,-1.5975,-1.6008,-1.6052,-1.6094,-1.6178,-1.6231,-1.6264,-1.6316,-1.6386,-1.6445,-1.6459,-1.6482,-1.649,-1.6504,-1.6448,-1.6442,-1.6436,-1.642,-1.6494,-1.6495,-1.656,-1.656,-1.6561]}]]